Home   Weather   Berlin   Past weeks
Flag for Germany

Past Weather in Berlin, Germany — Yesterday and Last 2 Weeks

Now
57 °F

Sunny.


Feels Like: 57 °F
Forecast: 67 / 54 °F
Wind: 2 mph from North

Location: Berlin-Tegel

Current Time: Oct 20, 2019 at 10:49:59 am

Latest Report: Oct 20, 2019 at 10:20 am


Visibility: 10 mi

Pressure: 29.86 "Hg

Humidity: 77%

Dew Point: 50 °F

Location of BerlinLocation

Past Weather in Berlin — Graph

°F

Berlin Temperature Yesterday

Maximum temperature yesterday: 61 °F (at 1:50 pm)
Minimum temperature yesterday: 48 °F (at 12:20 am)
Average temperature yesterday: 54 °F

High & Low Weather Summary for the Past Weeks

 TemperatureHumidityPressure
High75 °F (Oct 13, 1:50 pm)100% (Oct 6, 12:20 am)30.18 "Hg (Oct 6, 12:20 am)
Low30 °F (Oct 7, 5:50 am)44% (Oct 7, 2:20 pm)29.62 "Hg (Oct 16, 4:50 am)
Average55 °F79%29.87 "Hg
* Reported Oct 5 9:20 am — Oct 20 9:50 am, Berlin. Weather by CustomWeather, © 2019

Note: Actual official high and low records may vary slightly from our data, if they occured in-between our weather recording intervals... More about our weather records

Advertising

Berlin Weather History for the Previous 24 Hours

Scroll right to see more
 ConditionsComfort  
Time TempWeatherWind HumidityBarometerVisibility
9:50 am
Sun, Oct 20
57 °FPassing clouds.6 mph77%29.83 "HgN/A
9:20 am55 °FPassing clouds.5 mph82%29.83 "HgN/A
8:50 am55 °FPassing clouds.5 mph82%29.83 "HgN/A
8:20 am55 °FPassing clouds.6 mph82%29.83 "HgN/A
7:50 am55 °FPassing clouds.3 mph82%29.83 "HgN/A
7:20 am55 °FPassing clouds.6 mph82%29.83 "HgN/A
6:50 am55 °FPassing clouds.5 mph82%29.83 "HgN/A
6:20 am55 °FClear.2 mph82%29.80 "Hg10 mi
5:50 am55 °FClear.5 mph82%29.80 "Hg10 mi
5:20 am54 °FPassing clouds.3 mph88%29.80 "HgN/A
4:50 am54 °FClear.2 mph82%29.80 "Hg10 mi
4:20 am54 °FPassing clouds.3 mph82%29.80 "HgN/A
3:50 am54 °FClear.2 mph82%29.80 "Hg10 mi
3:20 am54 °FClear.6 mph82%29.80 "Hg10 mi
2:50 am54 °FClear.6 mph82%29.80 "Hg10 mi
2:20 am55 °FClear.6 mph77%29.80 "Hg10 mi
1:50 am55 °FClear.6 mph82%29.80 "Hg10 mi
1:20 am55 °FClear.7 mph82%29.80 "Hg10 mi
12:50 am55 °FClear.5 mph82%29.80 "Hg10 mi
12:20 am55 °FPassing clouds.6 mph82%29.80 "HgN/A
11:50 pm
Sat, Oct 19
55 °FPassing clouds.5 mph88%29.80 "HgN/A
11:20 pm55 °FClear.6 mph88%29.80 "Hg10 mi
10:20 pm55 °FPassing clouds.8 mph88%29.80 "HgN/A
9:50 pm54 °FClear.7 mph94%29.80 "Hg10 mi
9:20 pm55 °FClear.8 mph88%29.80 "Hg10 mi
8:50 pm55 °FClear.8 mph88%29.80 "Hg10 mi
8:20 pm55 °FClear.9 mph88%29.80 "Hg10 mi
7:50 pm55 °FClear.10 mph88%29.80 "Hg10 mi
7:20 pm57 °FPassing clouds.8 mph82%29.80 "HgN/A
6:50 pm57 °FClear.9 mph82%29.80 "Hg10 mi
6:20 pm57 °FClear.10 mph82%29.80 "Hg10 mi
5:20 pm59 °FPassing clouds.9 mph82%29.80 "HgN/A
4:50 pm61 °FPassing clouds.12 mph72%29.77 "HgN/A
4:20 pm61 °FPassing clouds.10 mph72%29.80 "HgN/A
3:50 pm61 °FSunny.10 mph72%29.80 "Hg10 mi
3:20 pm61 °FSunny.12 mph72%29.80 "Hg10 mi
2:20 pm61 °FSunny.9 mph72%29.83 "Hg10 mi
1:50 pm61 °FPassing clouds.9 mph72%29.83 "HgN/A
1:20 pm59 °FSunny.8 mph77%29.83 "Hg10 mi
12:50 pm59 °FPassing clouds.7 mph72%29.83 "HgN/A
12:20 pm57 °FScattered clouds.8 mph77%29.83 "HgN/A
11:50 am57 °FPartly sunny.12 mph77%29.83 "HgN/A
11:20 am59 °FPassing clouds.7 mph72%29.83 "HgN/A
10:50 am55 °FPassing clouds.7 mph77%29.83 "HgN/A
10:20 am54 °FSunny.8 mph82%29.86 "Hg10 mi
Weather by CustomWeather, © 2019

See weather overview